Location: Unspecified
(38.0000°N, 97.0000°W)
Time: 23:10:24
(UTC+00:00)

Daily predictions for brighter satellites

Satellite Brightness Start Highest point End
(mag) Time Altitude Azimuth Time Altitude Azimuth Time Altitude Azimuth
Landsat 5 3.6 12:00:02 10° S 12:04:30 79° WSW 12:09:02 10° NNW
Cosmos 540 Rocket 4.1 12:03:11 23° WNW 12:05:23 33° W 12:09:56 10° SSW
Cosmos 1151 Rocket 4.2 12:04:20 10° N 12:08:32 44° E 12:12:43 10° SSE
Cosmos 1634 Rocket 4.0 12:02:44 10° N 12:09:04 87° E 12:15:18 10° S
FALCON 9 DEB 2.9 12:06:42 16° SW 12:09:16 80° NW 12:12:40 10° NE
Meteor 2-3 Rocket 3.8 12:04:11 10° SSW 12:09:38 53° WNW 12:15:11 10° N
Cosmos 1862 4.3 12:07:16 10° S 12:11:04 49° E 12:14:54 10° NNE
Cosmos 1782 2.7 12:07:17 10° N 12:11:15 85° W 12:15:11 10° S
Cosmos 2082 Rocket 2.8 12:09:02 18° NW 12:12:35 35° WSW 12:17:36 10° SSW
Cosmos 2297 3.9 12:08:15 10° SW 12:13:47 49° WNW 12:19:21 10° NNE
USA 238 DEB 3.6 12:07:39 10° SW 12:13:59 60° NW 12:20:41 10° NNE
COSMOS 2406 4.4 12:12:51 19° W 12:14:00 20° W 12:17:57 10° SW
USA 238 3.6 12:07:44 10° SW 12:14:05 61° NW 12:20:47 10° NNE
Iridium 2 3.6 12:10:56 10° S 12:14:42 85° W 12:18:31 10° N
Gbstr 26 Del rocket 3.6 12:13:47 16° NW 12:16:44 48° NE 12:21:03 10° ESE
CZ-2C R/B 3.2 12:13:56 10° NNE 12:18:45 73° ESE 12:23:44 10° S
Meteor 1-26 Rocket 4.3 12:17:50 10° NNW 12:23:44 63° W 12:29:26 10° S
USA 215 3.4 12:17:22 10° SSE 12:23:49 62° SW 12:30:10 11° NW
CZ-2C R/B 3.1 12:20:29 10° S 12:25:44 43° W 12:30:56 10° NNW
Cosmos 2344 4.2 12:19:21 10° WSW 12:25:46 30° NW 12:32:29 10° NNE
BREEZE-M R/B 4.4 12:24:40 10° WSW 12:25:47 12° SW 12:27:09 10° SSW
Cosmos 1943 Rocket 2.6 12:21:10 10° SW 12:26:26 39° WNW 12:31:43 10° N
Meteor 1-31 Rocket 3.7 12:23:31 10° NNW 12:26:47 26° WNW 12:30:04 10° SW
ADEOS 3.6 12:22:55 10° N 12:28:03 57° WNW 12:33:08 10° SSW
Cosmos 1933 4.1 12:25:48 10° NNW 12:29:18 30° W 12:32:47 10° SSW
NOAA 11 4.2 12:24:59 10° N 12:30:24 66° WNW 12:35:49 10° SSW
Cosmos 1656 Rocket 3.9 12:25:43 10° SSW 12:31:04 71° ESE 12:36:29 10° NNE
Cosmos 1812 2.6 12:29:17 10° N 12:33:09 81° W 12:36:58 10° S
APEX 2.5 12:31:32 10° NNW 12:34:18 63° WSW 12:37:25 10° SSE
YAOGAN 6 4.4 12:32:57 10° NW 12:34:45 13° WNW 12:36:33 10° W
Hubble Space Telescope 2.8 12:33:23 10° SW 12:36:28 20° S 12:39:33 10° SE
CZ-4B R/B 3.5 12:33:53 10° SE 12:36:46 27° ENE 12:39:39 10° NNE
Genesis I 4.5 12:35:39 10° NNW 12:39:34 41° NE 12:43:24 10° SE
Cosmos 2098 Rocket 2.9 12:37:59 10° SSW 12:41:05 41° WNW 12:44:51 10° N
Cosmos 1241 Rocket 4.5 12:35:04 10° NNW 12:41:18 85° WSW 12:47:30 10° SSE
Envisat 4.2 12:40:13 10° NNW 12:43:53 20° WNW 12:47:33 10° WSW
IRAS Rocket 4.3 12:40:35 10° S 12:46:03 62° WSW 12:51:30 10° NNW
CZ-2D R/B 4.4 12:47:50 10° NNE 12:51:31 47° E 12:55:10 10° S
Okean 3 Rocket 3.8 12:48:18 10° SSW 12:52:42 53° W 12:57:09 10° N
FengYun 1-2 T 4.2 12:48:39 10° N 12:54:09 80° WNW 12:59:37 10° SSW
Cosmos 1354 Rocket 4.3 12:51:48 10° SSW 12:57:01 78° ESE 13:02:19 10° NNE
Cosmos 2263 4.2 12:52:22 10° SSW 12:57:59 68° WNW 13:03:43 10° NNE
CZ-2C R/B 3.0 23:32:37 10° SSE 23:37:44 89° WSW 23:42:39 10° NNW
Cosmos 2221 2.5 23:34:38 10° S 23:38:48 62° E 23:43:03 10° NNE
Cosmos 1939 Rocket 3.0 23:36:13 10° SSE 23:40:16 57° ENE 23:44:18 10° N
ATLAS CENTAUR R/B 3.8 23:30:34 10° SSW 23:44:10 67° SE 23:49:29 10° NE
Cosmos 1763 Rocket 4.2 23:40:16 10° SSE 23:44:43 32° E 23:49:11 10° NE
COSMO-SKYMED 1 3.8 23:42:08 10° NE 23:45:31 22° E 23:48:54 10° SE
Iridium 2 3.8 23:41:49 10° N 23:45:35 81° W 23:49:18 10° S
ATLAS CENTAUR R/B 3.6 23:42:42 10° W 23:45:48 21° NW 23:49:04 10° N
Okean O Rocket 3.1 23:44:23 10° ESE 23:47:08 16° ENE 23:49:54 10° NNE
Cosmos 1862 3.7 23:44:00 10° NNW 23:47:58 70° W 23:51:55 10° S
Cosmos 1606 3.0 23:48:36 10° SSW 23:52:19 68° W 23:56:04 10° N
